This is the latest recevied weather packets stored in our database for station/object DM1HF-13. If no packets are shown the sender has not sent any weather packets the latest 10 day(s).
| Time | Temp. | Humidity | Pressure | Rain* | Wind** | Luminosity | Snow |
|---|---|---|---|---|---|---|---|
| 1777884017 | 20.56° C | 47% | 1016 hPa | 0 mm | - | 383 W/m² | - |
| 1777883717 | 21.11° C | 46% | 1016 hPa | 0 mm | - | 515 W/m² | - |
| 1777883417 | 21.11° C | 47% | 1016 hPa | 0 mm | - | 705 W/m² | - |
| 1777883117 | 20.56° C | 49% | 1016 hPa | 0 mm | - | 414 W/m² | - |
| 1777882817 | 20° C | 50% | 1016 hPa | 0 mm | - | 494 W/m² | - |
| 1777882517 | 19.44° C | 51% | 1016 hPa | 0 mm | - | 643 W/m² | - |
| 1777882217 | 18.89° C | 52% | 1015.9 hPa | 0 mm | - | 543 W/m² | - |
| 1777881917 | 18.89° C | 52% | 1015.9 hPa | 0 mm | - | 366 W/m² | - |
| 1777881617 | 18.89° C | 54% | 1016 hPa | 0 mm | - | 308 W/m² | - |
| 1777881317 | 18.33° C | 54% | 1015.9 hPa | 0 mm | - | 364 W/m² | - |
| 1777881017 | 18.33° C | 57% | 1016 hPa | 0 mm | - | 463 W/m² | - |
| 1777880717 | 17.78° C | 58% | 1016 hPa | 0 mm | - | 424 W/m² | - |
| 1777880417 | 17.78° C | 58% | 1015.9 hPa | 0 mm | - | 100 W/m² | - |
| 1777880117 | 17.78° C | 57% | 1015.8 hPa | 0 mm | - | 84 W/m² | - |
| 1777879817 | 17.78° C | 58% | 1015.8 hPa | 0 mm | - | 75 W/m² | - |
| 1777879517 | 17.78° C | 58% | 1015.7 hPa | 0 mm | - | 63 W/m² | - |
| 1777879217 | 17.78° C | 58% | 1015.8 hPa | 0 mm | - | 54 W/m² | - |
| 1777878916 | 17.78° C | 59% | 1015.8 hPa | 0 mm | - | 59 W/m² | - |
| 1777878617 | 17.78° C | 60% | 1015.7 hPa | 0 mm | - | 56 W/m² | - |
| 1777878317 | 17.78° C | 60% | 1015.7 hPa | 0 mm | - | 66 W/m² | - |
| 1777878017 | 17.78° C | 59% | 1015.6 hPa | 0 mm | - | 73 W/m² | - |
| 1777877717 | 17.78° C | 58% | 1015.5 hPa | 0 mm | - | 65 W/m² | - |
| 1777877417 | 17.78° C | 58% | 1015.5 hPa | 0 mm | - | 66 W/m² | - |
| 1777877117 | 17.78° C | 58% | 1015.4 hPa | 0 mm | - | 63 W/m² | - |
| 1777876817 | 17.22° C | 57% | 1015.4 hPa | 0 mm | - | 60 W/m² | - |
* Rain latest hour (hover to see other rain measurements)
** Current wind speed in m/s (hover to see current wind gust speed)